Terug naar catalogus

CHECKMATE 10

ActiefMilitairPO
NORAD 57762·PAYLOAD·🇺🇸 United States

Gelanceerd Sep 2, 2023 vanaf Vandenberg Space Force Base

Loading…

Volgende Passages (komende 24 uur)

TLE

VersSource: Space-Track

Epoch: Sep 14, 2026, 12:39 UTC

1 57762U 23133F   26257.52718827  .00000051  00000-0  35039-4 0  9991
2 57762  80.9971 281.6331 0007409 124.0542 236.1318 13.85475207153404

Volg CHECKMATE 10 in realtime met AllMySat

Download on the App Store